リニア彗星

C/2012 X1 ( LINEAR )

English version
Home page
Updated on June 11, 2016

---------------------------------------------------------------------

・ プロフィール

発見日 2012年12月8日
発見光度 19.4等
発見者 Lincoln Laboratory Near-Earth Asteroid Research project

・ 写真集

・ 軌道要素

Epoch 2014 Mar. 4.0 TT = JDT 2456720.5
T 2014 Feb. 21.62579 TT                                 MPCW
q   1.5989156            (2000.0)            P               Q
z  +0.0064742      Peri.  132.10808     -0.22408135     +0.73238184
                   Node   113.14671     -0.96330105     -0.26648812
e   0.9896483      Incl.   44.36721     +0.14777898     -0.62657874
From 2465 observations 2012 Dec. 8-2015 Dec. 9, mean residual 0".7.
     Nongravitational parameters A1 = +4.31, A2 = +2.3319.

・ 星図

・ 光度変化

        m1 = 8.0 + 5 logΔ + 10.0 log r           [    ,-130]  (              〜2013年10月14日)
        m1 = 0.8 + 5 logΔ + 23   log r(t + 150)  [-130, -70]  (2013年10月14日〜2013年12月13日)
        m1 = 3.3 + 5 logΔ + 15.0 log r           [ -70,    ]  (2013年12月13日〜              )

---------------------------------------------------------------------

軌道要素はM.P.E.C. 2015-Y73に掲載されたものです。
星図はステラナビゲータ Ver.8 (アストロアーツ) で作成したものです。
光度グラフはComet for Windowsで作成したものです。

---------------------------------------------------------------------

Copyright(C) Seiichi Yoshida (comet@aerith.net). All rights reserved.